Weather History for KRDG - March, 2014

Change the Weather History Date:

Friday, March 7, 2014

  Actual Average Record
Temperature  
Mean Temperature 31 °F 38 °F  
Max Temperature 39 °F 47 °F 73 °F (1921)
Min Temperature 22 °F 28 °F 2 °F (2015)
Degree Days  
Heating Degree Days 34 27  
Month to date heating degree days 279 196  
Since 1 July heating degree days 4589 4238  
Cooling Degree Days 0 0  
Month to date cooling degree days 0 0  
Year to date cooling degree days 0 0  
Moisture  
Dew Point 19 °F    
Average Humidity 65    
Maximum Humidity 75    
Minimum Humidity 54    
Precipitation  
Precipitation 0.00 in 0.10 in 1.45 in (1967)
Month to date precipitation 0.03 0.62  
Year to date precipitation 6.71 6.15  
Sea Level Pressure  
Sea Level Pressure 30.19 in    
Wind  
Wind Speed 7 mph (North)    
Max Wind Speed 12 mph    
Max Gust Speed 15 mph    
Visibility 10 miles    
Events      
T = Trace of Precipitation, MM = Missing Value Source: NWS Daily Summary

Daily Weather History Graph

Daily Weather History Graph

Search for Another Location

Airport or City:

Trip Planner

Search our weather history database for the weather conditions in past years. The results will help you decide how hot, cold, wet, or windy it might be!

Date:

Astronomy

Mar. 07, 2014 Rise Set
Actual Time 6:28 AM EST 6:02 PM EST
Civil Twilight 6:01 AM EST 6:29 PM EST
Nautical Twilight 5:29 AM EST 7:00 PM EST
Astronomical Twilight 4:57 AM EST 7:32 PM EST
Moon 10:18 AM EST (3/7) 12:05 AM EST (3/7)
Length of Visible Light 12h 28m
Length of Day
11h 33m
Waxing Crescent, 42% of the Moon is Illuminated
Mar 7
Waxing Crescent
Mar 8
First Quarter
Mar 16
Full
Mar 23
Last Quarter
Mar 30
New

Hourly Weather History & Observations

Time (EST) Temp. Windchill Dew Point Humidity Pressure Visibility Wind Dir Wind Speed Gust Speed Precip Events Conditions
12:54 AM 25.0 °F 20.7 °F 12.9 °F 60% 30.44 in 10.0 mi East 3.5 mph - N/A   Clear
1:54 AM 24.1 °F 17.0 °F 12.9 °F 62% 30.40 in 10.0 mi NE 5.8 mph - N/A   Clear
2:29 AM 23.0 °F - 12.9 °F 65% 30.37 in 10.0 mi Calm Calm - N/A   Mostly Cloudy
2:54 AM 23.0 °F 17.0 °F 12.9 °F 65% 30.39 in 10.0 mi North 4.6 mph - N/A   Scattered Clouds
3:54 AM 23.0 °F 17.0 °F 12.9 °F 65% 30.37 in 10.0 mi North 4.6 mph - N/A   Partly Cloudy
4:54 AM 23.0 °F 14.7 °F 14.0 °F 68% 30.35 in 10.0 mi NNE 6.9 mph - N/A   Mostly Cloudy
5:11 AM 23.0 °F 14.7 °F 14.0 °F 68% 30.32 in 10.0 mi NNE 6.9 mph - N/A   Overcast
5:26 AM 23.0 °F 14.7 °F 14.0 °F 68% 30.31 in 10.0 mi NNE 6.9 mph - N/A   Overcast
5:54 AM 23.0 °F 14.7 °F 14.0 °F 68% 30.34 in 10.0 mi North 6.9 mph - N/A   Overcast
6:38 AM 24.1 °F 16.0 °F 15.1 °F 69% 30.30 in 10.0 mi NNE 6.9 mph - N/A   Overcast
6:54 AM 24.1 °F 14.4 °F 15.1 °F 69% 30.32 in 10.0 mi NNE 9.2 mph - N/A   Overcast
7:02 AM 24.1 °F 15.2 °F 15.1 °F 69% 30.29 in 10.0 mi North 8.1 mph - N/A   Overcast
7:54 AM 25.0 °F 18.1 °F 16.0 °F 69% 30.32 in 10.0 mi NNE 5.8 mph - N/A   Overcast
8:54 AM 26.1 °F 17.6 °F 16.0 °F 66% 30.28 in 10.0 mi NNE 8.1 mph - N/A   Overcast
9:54 AM 27.0 °F 18.0 °F 17.1 °F 66% 30.27 in 10.0 mi North 9.2 mph - N/A   Overcast
10:54 AM 30.0 °F 21.1 °F 19.0 °F 64% 30.25 in 10.0 mi North 10.4 mph - N/A   Mostly Cloudy
11:54 AM 32.0 °F 23.6 °F 19.9 °F 61% 30.22 in 10.0 mi North 10.4 mph - N/A   Clear
12:54 PM 34.0 °F 25.5 °F 21.9 °F 61% 30.17 in 10.0 mi NNE 11.5 mph - N/A   Clear
1:54 PM 36.0 °F 29.0 °F 23.0 °F 59% 30.14 in 10.0 mi NNE 9.2 mph - N/A   Clear
2:54 PM 37.0 °F 30.4 °F 24.1 °F 59% 30.12 in 10.0 mi NNE 9.2 mph - N/A   Clear
3:25 PM 37.9 °F 32.1 °F 24.1 °F 57% 30.07 in 10.0 mi NNE 8.1 mph - N/A   Clear
3:54 PM 37.9 °F 33.5 °F 24.1 °F 57% 30.09 in 10.0 mi NNE 5.8 mph - N/A   Clear
4:54 PM 39.0 °F 34.0 °F 24.1 °F 55% 30.06 in 10.0 mi NNE 6.9 mph - N/A   Clear
5:54 PM 37.9 °F 32.7 °F 24.1 °F 57% 30.05 in 10.0 mi North 6.9 mph - N/A   Clear
6:54 PM 36.0 °F 32.1 °F 24.1 °F 62% 30.04 in 10.0 mi North 4.6 mph - N/A   Clear
7:54 PM 34.0 °F - 24.1 °F 67% 30.03 in 10.0 mi Calm Calm - N/A   Clear
8:54 PM 33.1 °F 30.0 °F 24.1 °F 70% 30.02 in 10.0 mi NW 3.5 mph - N/A   Clear
9:54 PM 30.9 °F 24.3 °F 23.0 °F 72% 30.01 in 10.0 mi NNW 6.9 mph - N/A   Mostly Cloudy
10:06 PM 30.0 °F 23.2 °F 23.0 °F 75% 29.97 in 10.0 mi NNW 6.9 mph - N/A   Scattered Clouds
10:54 PM 28.0 °F 20.8 °F 21.9 °F 78% 29.98 in 10.0 mi NW 6.9 mph - N/A   Clear
11:38 PM 30.0 °F 26.5 °F 23.0 °F 75% 29.93 in 10.0 mi NNW 3.5 mph - N/A   Mostly Cloudy
11:54 PM 30.0 °F 26.5 °F 23.0 °F 75% 29.96 in 10.0 mi NW 3.5 mph - N/A   Overcast